Time,TemperatureF,DewpointF,PressureIn,WindDirection,WindDirectionDegrees,WindSpeedMPH,WindSpeedGustMPH,Humidity,HourlyPrecipIn,Conditions,Clouds,dailyrainin,SolarRadiationWatts/m^2,SoftwareType,DateUTC
2013-01-15 00:02:00,13.7,9.5,30.55,NW,308,2.0,6.0,83,0.00,,,0.00,0,Wunderground v.1.15,2013-01-15 06:02:00,
2013-01-15 00:07:00,13.6,9.4,30.55,NW,317,4.0,6.0,83,0.00,,,0.00,0,Wunderground v.1.15,2013-01-15 06:07:00,
2013-01-15 00:12:00,13.5,9.3,30.56,NW,317,0.0,4.0,83,0.00,,,0.00,0,Wunderground v.1.15,2013-01-15 06:12:00,
2013-01-15 00:17:00,13.4,9.2,30.56,NW,316,4.0,5.0,83,0.00,,,0.00,0,Wunderground v.1.15,2013-01-15 06:17:00,
2013-01-15 00:22:00,13.4,9.2,30.56,NW,316,0.0,4.0,83,0.00,,,0.00,0,Wunderground v.1.15,2013-01-15 06:22:00,
2013-01-15 00:27:00,13.2,9.0,30.56,NW,316,0.0,4.0,83,0.00,,,0.00,0,Wunderground v.1.15,2013-01-15 06:27:00,
2013-01-15 00:32:00,13.1,8.9,30.56,NW,316,0.0,1.0,83,0.00,,,0.00,0,Wunderground v.1.15,2013-01-15 06:32:00,
2013-01-15 00:37:00,12.8,8.6,30.56,NW,316,1.0,4.0,83,0.00,,,0.00,0,Wunderground v.1.15,2013-01-15 06:37:00,
2013-01-15 00:42:00,12.7,8.8,30.56,NW,316,0.0,0.0,84,0.00,,,0.00,0,Wunderground v.1.15,2013-01-15 06:42:00,
2013-01-15 00:47:00,12.6,8.7,30.56,NW,316,0.0,0.0,84,0.00,,,0.00,0,Wunderground v.1.15,2013-01-15 06:47:00,
2013-01-15 00:52:00,12.4,8.5,30.56,NW,316,0.0,0.0,84,0.00,,,0.00,0,Wunderground v.1.15,2013-01-15 06:52:00,
2013-01-15 00:57:00,12.1,8.2,30.56,NW,316,0.0,0.0,84,0.00,,,0.00,0,Wunderground v.1.15,2013-01-15 06:57:00,
2013-01-15 01:02:00,11.9,8.0,30.56,NW,316,0.0,0.0,84,0.00,,,0.00,0,Wunderground v.1.15,2013-01-15 07:02:00,
2013-01-15 01:07:00,11.7,8.1,30.56,NW,316,0.0,0.0,85,0.00,,,0.00,0,Wunderground v.1.15,2013-01-15 07:07:00,
2013-01-15 01:12:00,11.6,8.0,30.56,NW,316,0.0,0.0,85,0.00,,,0.00,0,Wunderground v.1.15,2013-01-15 07:12:00,
2013-01-15 01:17:00,11.4,7.8,30.56,NW,316,0.0,0.0,85,0.00,,,0.00,0,Wunderground v.1.15,2013-01-15 07:17:00,
2013-01-15 01:22:00,11.0,7.1,30.55,NW,316,0.0,1.0,84,0.00,,,0.00,0,Wunderground v.1.15,2013-01-15 07:22:00,
2013-01-15 01:27:00,10.8,7.2,30.55,NW,316,0.0,1.0,85,0.00,,,0.00,0,Wunderground v.1.15,2013-01-15 07:27:00,
2013-01-15 01:32:00,10.7,7.3,30.55,NW,316,0.0,0.0,86,0.00,,,0.00,0,Wunderground v.1.15,2013-01-15 07:32:00,
2013-01-15 01:37:00,10.7,7.6,30.55,NW,316,0.0,0.0,87,0.00,,,0.00,0,Wunderground v.1.15,2013-01-15 07:37:00,
2013-01-15 01:42:00,10.8,7.7,30.55,NW,316,0.0,0.0,87,0.00,,,0.00,0,Wunderground v.1.15,2013-01-15 07:42:00,
2013-01-15 01:47:00,10.9,8.0,30.56,NW,316,0.0,0.0,88,0.00,,,0.00,0,Wunderground v.1.15,2013-01-15 07:47:00,
2013-01-15 01:52:00,10.8,7.7,30.56,NW,316,0.0,0.0,87,0.00,,,0.00,0,Wunderground v.1.15,2013-01-15 07:52:00,
2013-01-15 01:57:00,10.7,7.6,30.56,NW,316,0.0,0.0,87,0.00,,,0.00,0,Wunderground v.1.15,2013-01-15 07:57:00,
2013-01-15 02:02:00,10.5,7.1,30.56,NW,316,0.0,0.0,86,0.00,,,0.00,0,Wunderground v.1.15,2013-01-15 08:02:00,
2013-01-15 02:07:00,10.3,7.2,30.56,NW,316,0.0,0.0,87,0.00,,,0.00,0,Wunderground v.1.15,2013-01-15 08:07:00,
2013-01-15 02:12:00,10.2,7.1,30.56,NW,316,0.0,0.0,87,0.00,,,0.00,0,Wunderground v.1.15,2013-01-15 08:12:00,
2013-01-15 02:17:00,10.0,6.9,30.56,NW,316,0.0,0.0,87,0.00,,,0.00,0,Wunderground v.1.15,2013-01-15 08:17:00,
2013-01-15 02:22:00,9.9,7.1,30.56,NW,316,0.0,0.0,88,0.00,,,0.00,0,Wunderground v.1.15,2013-01-15 08:22:00,
2013-01-15 02:27:00,9.9,7.1,30.56,NW,316,0.0,0.0,88,0.00,,,0.00,0,Wunderground v.1.15,2013-01-15 08:27:00,
2013-01-15 02:32:00,9.9,7.3,30.56,NW,316,0.0,0.0,89,0.00,,,0.00,0,Wunderground v.1.15,2013-01-15 08:32:00,
2013-01-15 02:37:00,9.9,7.1,30.56,NW,316,0.0,0.0,88,0.00,,,0.00,0,Wunderground v.1.15,2013-01-15 08:37:00,
2013-01-15 02:42:00,9.9,7.3,30.56,NW,316,0.0,0.0,89,0.00,,,0.00,0,Wunderground v.1.15,2013-01-15 08:42:00,
2013-01-15 02:47:00,10.0,7.4,30.56,NW,316,0.0,0.0,89,0.00,,,0.00,0,Wunderground v.1.15,2013-01-15 08:47:00,
2013-01-15 02:52:00,10.1,7.5,30.56,NW,316,0.0,0.0,89,0.00,,,0.00,0,Wunderground v.1.15,2013-01-15 08:52:00,
2013-01-15 02:57:00,10.1,7.5,30.57,NW,316,0.0,0.0,89,0.00,,,0.00,0,Wunderground v.1.15,2013-01-15 08:57:00,
2013-01-15 03:02:00,10.3,7.7,30.56,NW,316,0.0,1.0,89,0.00,,,0.00,0,Wunderground v.1.15,2013-01-15 09:02:00,
2013-01-15 03:07:00,10.4,8.0,30.57,NW,316,0.0,2.0,90,0.00,,,0.00,0,Wunderground v.1.15,2013-01-15 09:07:00,
2013-01-15 03:12:00,10.5,7.9,30.57,NW,316,0.0,2.0,89,0.00,,,0.00,0,Wunderground v.1.15,2013-01-15 09:12:00,
2013-01-15 03:17:00,10.7,8.3,30.57,NW,316,0.0,2.0,90,0.00,,,0.00,0,Wunderground v.1.15,2013-01-15 09:17:00,
2013-01-15 03:22:00,10.6,8.0,30.56,NW,316,0.0,1.0,89,0.00,,,0.00,0,Wunderground v.1.15,2013-01-15 09:22:00,
2013-01-15 03:27:00,10.5,7.6,30.56,NW,317,1.0,2.0,88,0.00,,,0.00,0,Wunderground v.1.15,2013-01-15 09:27:00,
2013-01-15 03:32:00,10.7,8.1,30.56,NW,325,2.0,2.0,89,0.00,,,0.00,0,Wunderground v.1.15,2013-01-15 09:32:00,
2013-01-15 03:37:00,10.8,8.2,30.55,NW,325,1.0,2.0,89,0.00,,,0.00,0,Wunderground v.1.15,2013-01-15 09:37:00,
2013-01-15 03:42:00,10.9,8.3,30.55,NW,325,0.0,2.0,89,0.00,,,0.00,0,Wunderground v.1.15,2013-01-15 09:42:00,
2013-01-15 03:47:00,11.1,8.5,30.55,NW,325,0.0,2.0,89,0.00,,,0.00,0,Wunderground v.1.15,2013-01-15 09:47:00,
2013-01-15 03:52:00,11.3,8.7,30.55,NW,325,0.0,1.0,89,0.00,,,0.00,0,Wunderground v.1.15,2013-01-15 09:52:00,
2013-01-15 03:57:00,11.3,8.7,30.55,NW,325,0.0,1.0,89,0.00,,,0.00,0,Wunderground v.1.15,2013-01-15 09:57:00,
2013-01-15 04:02:00,11.4,8.8,30.55,NW,325,0.0,0.0,89,0.00,,,0.00,0,Wunderground v.1.15,2013-01-15 10:02:00,
2013-01-15 04:07:00,11.4,8.8,30.54,NW,325,0.0,0.0,89,0.00,,,0.00,0,Wunderground v.1.15,2013-01-15 10:07:00,
2013-01-15 04:12:00,11.4,8.8,30.54,NW,325,0.0,1.0,89,0.00,,,0.00,0,Wunderground v.1.15,2013-01-15 10:12:00,
2013-01-15 04:17:00,11.6,9.0,30.54,NW,325,0.0,1.0,89,0.00,,,0.00,0,Wunderground v.1.15,2013-01-15 10:17:00,
2013-01-15 04:22:00,11.8,9.2,30.54,NW,325,0.0,0.0,89,0.00,,,0.00,0,Wunderground v.1.15,2013-01-15 10:22:00,
2013-01-15 04:27:00,11.9,9.3,30.54,NW,325,0.0,0.0,89,0.00,,,0.00,0,Wunderground v.1.15,2013-01-15 10:27:00,
2013-01-15 04:32:00,12.0,9.4,30.53,NW,325,0.0,0.0,89,0.00,,,0.00,0,Wunderground v.1.15,2013-01-15 10:32:00,
2013-01-15 04:37:00,12.1,9.5,30.53,NW,325,0.0,1.0,89,0.00,,,0.00,0,Wunderground v.1.15,2013-01-15 10:37:00,
2013-01-15 04:42:00,12.2,9.6,30.53,NW,325,0.0,0.0,89,0.00,,,0.00,0,Wunderground v.1.15,2013-01-15 10:42:00,
2013-01-15 04:47:00,12.2,9.6,30.53,NW,325,0.0,1.0,89,0.00,,,0.00,0,Wunderground v.1.15,2013-01-15 10:47:00,
2013-01-15 04:52:00,12.4,9.8,30.53,NW,325,0.0,1.0,89,0.00,,,0.00,0,Wunderground v.1.15,2013-01-15 10:52:00,
2013-01-15 04:57:00,12.5,9.9,30.53,NW,325,0.0,2.0,89,0.00,,,0.00,0,Wunderground v.1.15,2013-01-15 10:57:00,
2013-01-15 05:02:00,12.6,9.7,30.52,NW,325,1.0,1.0,88,0.00,,,0.00,0,Wunderground v.1.15,2013-01-15 11:02:00,
2013-01-15 05:07:00,12.6,9.7,30.52,NW,325,0.0,2.0,88,0.00,,,0.00,0,Wunderground v.1.15,2013-01-15 11:07:00,
2013-01-15 05:12:00,12.7,9.8,30.52,NW,325,0.0,1.0,88,0.00,,,0.00,0,Wunderground v.1.15,2013-01-15 11:12:00,
2013-01-15 05:17:00,12.7,9.8,30.52,NW,325,0.0,1.0,88,0.00,,,0.00,0,Wunderground v.1.15,2013-01-15 11:17:00,
2013-01-15 05:22:00,12.7,9.8,30.52,NW,325,1.0,1.0,88,0.00,,,0.00,0,Wunderground v.1.15,2013-01-15 11:22:00,
2013-01-15 05:27:00,12.7,9.8,30.52,NW,325,0.0,2.0,88,0.00,,,0.00,0,Wunderground v.1.15,2013-01-15 11:27:00,
2013-01-15 05:32:00,12.8,9.9,30.52,NW,325,1.0,2.0,88,0.00,,,0.00,0,Wunderground v.1.15,2013-01-15 11:32:00,
2013-01-15 05:37:00,13.0,10.4,30.52,NW,325,1.0,4.0,89,0.00,,,0.00,0,Wunderground v.1.15,2013-01-15 11:37:00,
2013-01-15 05:42:00,13.2,10.6,30.51,NW,325,0.0,1.0,89,0.00,,,0.00,0,Wunderground v.1.15,2013-01-15 11:42:00,
2013-01-15 05:47:00,13.3,10.4,30.51,NW,325,0.0,2.0,88,0.00,,,0.00,0,Wunderground v.1.15,2013-01-15 11:47:00,
2013-01-15 05:52:00,13.3,10.4,30.51,NW,325,0.0,1.0,88,0.00,,,0.00,0,Wunderground v.1.15,2013-01-15 11:52:00,
2013-01-15 05:57:00,13.2,10.3,30.51,NW,325,1.0,2.0,88,0.00,,,0.00,0,Wunderground v.1.15,2013-01-15 11:57:00,
2013-01-15 06:02:00,13.3,10.4,30.51,NW,325,0.0,1.0,88,0.00,,,0.00,0,Wunderground v.1.15,2013-01-15 12:02:00,
2013-01-15 06:07:00,13.4,10.5,30.51,NW,325,2.0,2.0,88,0.00,,,0.00,0,Wunderground v.1.15,2013-01-15 12:07:00,
2013-01-15 06:12:00,13.6,10.7,30.52,NW,325,1.0,4.0,88,0.00,,,0.00,0,Wunderground v.1.15,2013-01-15 12:12:00,
2013-01-15 06:17:00,13.7,10.8,30.52,NW,325,1.0,4.0,88,0.00,,,0.00,0,Wunderground v.1.15,2013-01-15 12:17:00,
2013-01-15 06:22:00,13.8,10.9,30.51,NW,325,1.0,2.0,88,0.00,,,0.00,0,Wunderground v.1.15,2013-01-15 12:22:00,
2013-01-15 06:27:00,13.8,10.9,30.51,NW,325,1.0,2.0,88,0.00,,,0.00,0,Wunderground v.1.15,2013-01-15 12:27:00,
2013-01-15 06:32:00,13.9,11.0,30.51,NW,325,0.0,1.0,88,0.00,,,0.00,0,Wunderground v.1.15,2013-01-15 12:32:00,
2013-01-15 06:37:00,13.8,10.6,30.51,NW,325,0.0,2.0,87,0.00,,,0.00,0,Wunderground v.1.15,2013-01-15 12:37:00,
2013-01-15 06:42:00,13.7,10.5,30.51,NW,325,1.0,1.0,87,0.00,,,0.00,0,Wunderground v.1.15,2013-01-15 12:42:00,
2013-01-15 06:47:00,13.7,10.5,30.51,NW,325,2.0,2.0,87,0.00,,,0.00,0,Wunderground v.1.15,2013-01-15 12:47:00,
2013-01-15 06:52:00,13.7,10.5,30.51,NW,325,1.0,2.0,87,0.00,,,0.00,0,Wunderground v.1.15,2013-01-15 12:52:00,
2013-01-15 06:57:00,13.7,10.5,30.51,NW,325,0.0,2.0,87,0.00,,,0.00,0,Wunderground v.1.15,2013-01-15 12:57:00,
2013-01-15 07:02:00,13.6,10.5,30.51,NW,325,0.0,0.0,87,0.00,,,0.00,0,Wunderground v.1.15,2013-01-15 13:02:00,
2013-01-15 07:07:00,13.5,10.4,30.52,NW,325,0.0,0.0,87,0.00,,,0.00,0,Wunderground v.1.15,2013-01-15 13:07:00,
2013-01-15 07:12:00,13.4,10.3,30.51,NW,325,1.0,2.0,87,0.00,,,0.00,0,Wunderground v.1.15,2013-01-15 13:12:00,
2013-01-15 07:17:00,13.4,10.3,30.52,NW,325,0.0,2.0,87,0.00,,,0.00,0,Wunderground v.1.15,2013-01-15 13:17:00,
2013-01-15 07:22:00,13.4,10.3,30.51,NW,325,0.0,0.0,87,0.00,,,0.00,0,Wunderground v.1.15,2013-01-15 13:22:00,
2013-01-15 07:27:00,13.3,10.2,30.51,NW,325,0.0,0.0,87,0.00,,,0.00,5,Wunderground v.1.15,2013-01-15 13:27:00,
2013-01-15 07:32:00,13.2,10.1,30.51,NW,325,0.0,0.0,87,0.00,,,0.00,9,Wunderground v.1.15,2013-01-15 13:32:00,
2013-01-15 07:37:00,13.3,10.4,30.52,NW,325,0.0,1.0,88,0.00,,,0.00,11,Wunderground v.1.15,2013-01-15 13:37:00,
2013-01-15 07:42:00,13.4,10.5,30.52,NW,325,0.0,0.0,88,0.00,,,0.00,14,Wunderground v.1.15,2013-01-15 13:42:00,
2013-01-15 07:47:00,13.5,10.6,30.52,NW,325,0.0,0.0,88,0.00,,,0.00,19,Wunderground v.1.15,2013-01-15 13:47:00,
2013-01-15 07:52:00,13.6,10.7,30.52,NW,325,0.0,0.0,88,0.00,,,0.00,21,Wunderground v.1.15,2013-01-15 13:52:00,
2013-01-15 07:57:00,13.8,10.9,30.51,NW,325,0.0,0.0,88,0.00,,,0.00,28,Wunderground v.1.15,2013-01-15 13:57:00,
2013-01-15 08:02:00,14.0,11.1,30.52,NW,325,0.0,0.0,88,0.00,,,0.00,33,Wunderground v.1.15,2013-01-15 14:02:00,
2013-01-15 08:07:00,14.3,11.4,30.51,NW,325,0.0,1.0,88,0.00,,,0.00,37,Wunderground v.1.15,2013-01-15 14:07:00,
2013-01-15 08:12:00,14.6,11.7,30.51,NW,325,0.0,1.0,88,0.00,,,0.00,67,Wunderground v.1.15,2013-01-15 14:12:00,
2013-01-15 08:17:00,15.2,12.3,30.51,NW,325,0.0,1.0,88,0.00,,,0.00,81,Wunderground v.1.15,2013-01-15 14:17:00,
2013-01-15 08:22:00,15.7,12.8,30.51,NW,325,0.0,0.0,88,0.00,,,0.00,95,Wunderground v.1.15,2013-01-15 14:22:00,
2013-01-15 08:27:00,16.4,13.2,30.51,NW,325,0.0,4.0,87,0.00,,,0.00,107,Wunderground v.1.15,2013-01-15 14:27:00,
2013-01-15 08:32:00,16.8,13.3,30.51,NW,321,2.0,4.0,86,0.00,,,0.00,120,Wunderground v.1.15,2013-01-15 14:32:00,
2013-01-15 08:37:00,17.3,13.8,30.51,WSW,242,5.0,5.0,86,0.00,,,0.00,132,Wunderground v.1.15,2013-01-15 14:37:00,
2013-01-15 08:42:00,17.8,14.3,30.50,SSW,210,1.0,5.0,86,0.00,,,0.00,146,Wunderground v.1.15,2013-01-15 14:42:00,
2013-01-15 08:47:00,18.3,14.8,30.50,South,185,5.0,7.0,86,0.00,,,0.00,158,Wunderground v.1.15,2013-01-15 14:47:00,
2013-01-15 08:52:00,18.9,15.4,30.50,South,182,4.0,6.0,86,0.00,,,0.00,174,Wunderground v.1.15,2013-01-15 14:52:00,
2013-01-15 08:57:00,19.5,15.5,30.50,South,176,4.0,7.0,84,0.00,,,0.00,188,Wunderground v.1.15,2013-01-15 14:57:00,
2013-01-15 09:02:00,20.0,15.9,30.51,South,179,7.0,7.0,84,0.00,,,0.00,200,Wunderground v.1.15,2013-01-15 15:02:00,
2013-01-15 09:07:00,20.4,16.1,30.51,South,190,3.0,7.0,83,0.00,,,0.00,211,Wunderground v.1.15,2013-01-15 15:07:00,
2013-01-15 09:12:00,20.8,16.2,30.51,South,190,3.0,5.0,82,0.00,,,0.00,221,Wunderground v.1.15,2013-01-15 15:12:00,
2013-01-15 09:17:00,21.4,16.5,30.51,SSW,200,6.0,11.0,81,0.00,,,0.00,234,Wunderground v.1.15,2013-01-15 15:17:00,
2013-01-15 09:22:00,21.9,16.7,30.51,SSE,164,6.0,10.0,80,0.00,,,0.00,244,Wunderground v.1.15,2013-01-15 15:22:00,
2013-01-15 09:27:00,22.2,16.7,30.51,SSW,205,6.0,10.0,79,0.00,,,0.00,255,Wunderground v.1.15,2013-01-15 15:27:00,
2013-01-15 09:32:00,22.5,16.7,30.51,SSW,202,10.0,12.0,78,0.00,,,0.00,265,Wunderground v.1.15,2013-01-15 15:32:00,
2013-01-15 09:37:00,22.5,16.4,30.51,SSW,198,9.0,14.0,77,0.00,,,0.00,276,Wunderground v.1.15,2013-01-15 15:37:00,
2013-01-15 09:42:00,22.6,16.2,30.52,South,175,11.0,14.0,76,0.00,,,0.00,283,Wunderground v.1.15,2013-01-15 15:42:00,
2013-01-15 09:47:00,22.7,15.7,30.52,SSW,192,8.0,16.0,74,0.00,,,0.00,295,Wunderground v.1.15,2013-01-15 15:47:00,
2013-01-15 09:51:00,22.7,16.3,30.52,SSE,160,10.0,13.0,76,0.00,,,0.00,309,Wunderground v.1.15,2013-01-15 15:51:00,
2013-01-15 09:56:00,22.4,16.0,30.52,SSE,164,6.0,13.0,76,0.00,,,0.00,323,Wunderground v.1.15,2013-01-15 15:56:00,
2013-01-15 10:01:00,22.4,16.0,30.52,South,173,8.0,11.0,76,0.00,,,0.00,332,Wunderground v.1.15,2013-01-15 16:01:00,
2013-01-15 10:06:00,22.5,16.1,30.52,South,170,6.0,11.0,76,0.00,,,0.00,341,Wunderground v.1.15,2013-01-15 16:06:00,
2013-01-15 10:11:00,22.4,16.0,30.51,South,175,7.0,10.0,76,0.00,,,0.00,346,Wunderground v.1.15,2013-01-15 16:11:00,
2013-01-15 10:16:00,22.4,16.0,30.52,South,182,6.0,12.0,76,0.00,,,0.00,355,Wunderground v.1.15,2013-01-15 16:16:00,
2013-01-15 10:21:00,22.5,16.4,30.51,South,175,10.0,10.0,77,0.00,,,0.00,362,Wunderground v.1.15,2013-01-15 16:21:00,
2013-01-15 10:26:00,22.7,16.3,30.51,SSE,159,10.0,12.0,76,0.00,,,0.00,369,Wunderground v.1.15,2013-01-15 16:26:00,
2013-01-15 10:31:00,22.9,16.2,30.51,South,184,5.0,11.0,75,0.00,,,0.00,378,Wunderground v.1.15,2013-01-15 16:31:00,
2013-01-15 10:36:00,23.1,16.7,30.50,SSE,156,4.0,12.0,76,0.00,,,0.00,385,Wunderground v.1.15,2013-01-15 16:36:00,
2013-01-15 10:41:00,23.4,16.9,30.50,SSE,157,7.0,10.0,76,0.00,,,0.00,394,Wunderground v.1.15,2013-01-15 16:41:00,
2013-01-15 10:46:00,23.8,17.3,30.49,South,182,7.0,12.0,76,0.00,,,0.00,401,Wunderground v.1.15,2013-01-15 16:46:00,
2013-01-15 10:51:00,24.2,16.5,30.49,South,180,8.0,13.0,72,0.00,,,0.00,408,Wunderground v.1.15,2013-01-15 16:51:00,
2013-01-15 10:56:00,24.3,16.2,30.49,South,176,6.0,15.0,71,0.00,,,0.00,413,Wunderground v.1.15,2013-01-15 16:56:00,
2013-01-15 11:01:00,24.4,16.3,30.49,South,169,7.0,12.0,71,0.00,,,0.00,418,Wunderground v.1.15,2013-01-15 17:01:00,
2013-01-15 11:06:00,24.6,16.9,30.48,South,173,9.0,12.0,72,0.00,,,0.00,424,Wunderground v.1.15,2013-01-15 17:06:00,
2013-01-15 11:11:00,25.1,17.3,30.48,SSE,149,11.0,11.0,72,0.00,,,0.00,429,Wunderground v.1.15,2013-01-15 17:11:00,
2013-01-15 11:16:00,25.1,16.4,30.48,SSE,151,9.0,15.0,69,0.00,,,0.00,432,Wunderground v.1.15,2013-01-15 17:16:00,
2013-01-15 11:21:00,25.3,16.5,30.47,South,181,8.0,15.0,69,0.00,,,0.00,434,Wunderground v.1.15,2013-01-15 17:21:00,
2013-01-15 11:26:00,25.3,16.5,30.47,South,169,10.0,18.0,69,0.00,,,0.00,436,Wunderground v.1.15,2013-01-15 17:26:00,
2013-01-15 11:31:00,25.4,17.0,30.46,SSE,168,10.0,14.0,70,0.00,,,0.00,441,Wunderground v.1.15,2013-01-15 17:31:00,
2013-01-15 11:36:00,25.6,17.2,30.45,SSW,194,9.0,14.0,70,0.00,,,0.00,445,Wunderground v.1.15,2013-01-15 17:36:00,
2013-01-15 11:41:00,26.0,17.6,30.45,SSE,165,9.0,12.0,70,0.00,,,0.00,452,Wunderground v.1.15,2013-01-15 17:41:00,
2013-01-15 11:46:00,26.3,16.8,30.45,South,183,7.0,14.0,67,0.00,,,0.00,448,Wunderground v.1.15,2013-01-15 17:46:00,
2013-01-15 11:51:00,26.7,17.2,30.44,South,184,12.0,12.0,67,0.00,,,0.00,448,Wunderground v.1.15,2013-01-15 17:51:00,
2013-01-15 11:56:00,27.0,17.5,30.44,South,171,8.0,17.0,67,0.00,,,0.00,450,Wunderground v.1.15,2013-01-15 17:56:00,
2013-01-15 12:01:00,27.3,17.8,30.44,South,169,14.0,17.0,67,0.00,,,0.00,454,Wunderground v.1.15,2013-01-15 18:01:00,
2013-01-15 12:06:00,27.5,16.5,30.44,SSW,196,18.0,22.0,63,0.00,,,0.00,454,Wunderground v.1.15,2013-01-15 18:06:00,
2013-01-15 12:11:00,27.5,16.2,30.44,South,187,14.0,18.0,62,0.00,,,0.00,455,Wunderground v.1.15,2013-01-15 18:11:00,
2013-01-15 12:16:00,27.5,15.4,30.43,SSE,152,13.0,20.0,60,0.00,,,0.00,454,Wunderground v.1.15,2013-01-15 18:16:00,
2013-01-15 12:21:00,27.9,16.6,30.43,SSE,165,15.0,20.0,62,0.00,,,0.00,454,Wunderground v.1.15,2013-01-15 18:21:00,
2013-01-15 12:26:00,28.0,16.6,30.44,South,186,14.0,22.0,62,0.00,,,0.00,454,Wunderground v.1.15,2013-01-15 18:26:00,
2013-01-15 12:31:00,27.9,15.4,30.43,SSW,202,20.0,20.0,59,0.00,,,0.00,452,Wunderground v.1.15,2013-01-15 18:31:00,
2013-01-15 12:36:00,28.1,16.0,30.43,SSW,194,14.0,25.0,60,0.00,,,0.00,445,Wunderground v.1.15,2013-01-15 18:36:00,
2013-01-15 12:41:00,28.1,14.8,30.43,South,179,19.0,26.0,57,0.00,,,0.00,445,Wunderground v.1.15,2013-01-15 18:41:00,
2013-01-15 12:46:00,28.3,15.0,30.43,SSE,161,12.0,26.0,57,0.00,,,0.00,443,Wunderground v.1.15,2013-01-15 18:46:00,
2013-01-15 12:51:00,28.3,14.6,30.43,SSE,167,9.0,22.0,56,0.00,,,0.00,439,Wunderground v.1.15,2013-01-15 18:51:00,
2013-01-15 12:56:00,28.2,14.5,30.42,SSW,211,22.0,26.0,56,0.00,,,0.00,436,Wunderground v.1.15,2013-01-15 18:56:00,
2013-01-15 13:01:00,28.3,14.6,30.42,SSW,202,13.0,16.0,56,0.00,,,0.00,432,Wunderground v.1.15,2013-01-15 19:01:00,
2013-01-15 13:06:00,28.5,14.4,30.42,SW,222,10.0,22.0,55,0.00,,,0.00,432,Wunderground v.1.15,2013-01-15 19:06:00,
2013-01-15 13:11:00,28.5,14.8,30.42,South,183,12.0,21.0,56,0.00,,,0.00,427,Wunderground v.1.15,2013-01-15 19:11:00,
2013-01-15 13:16:00,28.3,14.2,30.42,SW,216,16.0,21.0,55,0.00,,,0.00,420,Wunderground v.1.15,2013-01-15 19:16:00,
2013-01-15 13:21:00,28.4,14.7,30.41,SSW,207,14.0,21.0,56,0.00,,,0.00,413,Wunderground v.1.15,2013-01-15 19:21:00,
2013-01-15 13:26:00,28.5,14.8,30.41,SSE,165,12.0,21.0,56,0.00,,,0.00,404,Wunderground v.1.15,2013-01-15 19:26:00,
2013-01-15 13:31:00,28.7,15.0,30.41,SSW,205,10.0,15.0,56,0.00,,,0.00,401,Wunderground v.1.15,2013-01-15 19:31:00,
2013-01-15 13:36:00,28.7,14.1,30.41,SSW,203,13.0,25.0,54,0.00,,,0.00,380,Wunderground v.1.15,2013-01-15 19:36:00,
2013-01-15 13:41:00,28.7,14.6,30.41,SSW,206,11.0,17.0,55,0.00,,,0.00,387,Wunderground v.1.15,2013-01-15 19:41:00,
2013-01-15 13:46:00,28.9,15.2,30.41,SSW,212,16.0,18.0,56,0.00,,,0.00,380,Wunderground v.1.15,2013-01-15 19:46:00,
2013-01-15 13:51:00,28.8,14.6,30.40,SW,215,16.0,23.0,55,0.00,,,0.00,374,Wunderground v.1.15,2013-01-15 19:51:00,
2013-01-15 13:56:00,28.7,15.0,30.40,SSE,159,13.0,23.0,56,0.00,,,0.00,366,Wunderground v.1.15,2013-01-15 19:56:00,
2013-01-15 14:01:00,28.9,15.2,30.40,SSW,205,13.0,15.0,56,0.00,,,0.00,359,Wunderground v.1.15,2013-01-15 20:01:00,
2013-01-15 14:06:00,29.0,14.8,30.40,SSE,155,16.0,19.0,55,0.00,,,0.00,348,Wunderground v.1.15,2013-01-15 20:06:00,
2013-01-15 14:11:00,29.1,15.7,30.40,South,190,8.0,16.0,57,0.00,,,0.00,341,Wunderground v.1.15,2013-01-15 20:11:00,
2013-01-15 14:16:00,29.4,15.6,30.40,South,169,14.0,16.0,56,0.00,,,0.00,334,Wunderground v.1.15,2013-01-15 20:16:00,
2013-01-15 14:21:00,29.5,15.7,30.40,SSW,204,7.0,11.0,56,0.00,,,0.00,323,Wunderground v.1.15,2013-01-15 20:21:00,
2013-01-15 14:26:00,29.5,15.3,30.40,South,184,15.0,21.0,55,0.00,,,0.00,316,Wunderground v.1.15,2013-01-15 20:26:00,
2013-01-15 14:31:00,29.4,15.2,30.40,SSW,209,9.0,15.0,55,0.00,,,0.00,306,Wunderground v.1.15,2013-01-15 20:31:00,
2013-01-15 14:36:00,29.3,14.3,30.40,SSW,193,15.0,19.0,53,0.00,,,0.00,295,Wunderground v.1.15,2013-01-15 20:36:00,
2013-01-15 14:41:00,29.3,15.1,30.39,South,187,10.0,18.0,55,0.00,,,0.00,285,Wunderground v.1.15,2013-01-15 20:41:00,
2013-01-15 14:46:00,29.4,15.2,30.38,South,185,10.0,18.0,55,0.00,,,0.00,272,Wunderground v.1.15,2013-01-15 20:46:00,
2013-01-15 14:51:00,29.7,16.7,30.38,South,186,10.0,14.0,58,0.00,,,0.00,262,Wunderground v.1.15,2013-01-15 20:51:00,
2013-01-15 14:56:00,29.6,17.0,30.38,South,169,11.0,16.0,59,0.00,,,0.00,250,Wunderground v.1.15,2013-01-15 20:56:00,
2013-01-15 15:01:00,29.5,17.7,30.38,South,180,13.0,13.0,61,0.00,,,0.00,237,Wunderground v.1.15,2013-01-15 21:01:00,
2013-01-15 15:06:00,29.3,17.1,30.38,South,184,10.0,16.0,60,0.00,,,0.00,225,Wunderground v.1.15,2013-01-15 21:06:00,
2013-01-15 15:11:00,29.1,16.9,30.38,SSE,165,13.0,15.0,60,0.00,,,0.00,211,Wunderground v.1.15,2013-01-15 21:11:00,
2013-01-15 15:16:00,29.0,16.8,30.38,South,186,12.0,15.0,60,0.00,,,0.00,197,Wunderground v.1.15,2013-01-15 21:16:00,
2013-01-15 15:21:00,29.1,17.3,30.37,South,171,6.0,11.0,61,0.00,,,0.00,181,Wunderground v.1.15,2013-01-15 21:21:00,
2013-01-15 15:26:00,29.0,16.8,30.37,South,171,10.0,17.0,60,0.00,,,0.00,165,Wunderground v.1.15,2013-01-15 21:26:00,
2013-01-15 15:31:00,28.9,17.1,30.37,SSE,149,13.0,13.0,61,0.00,,,0.00,151,Wunderground v.1.15,2013-01-15 21:31:00,
2013-01-15 15:36:00,28.7,16.6,30.37,South,172,10.0,17.0,60,0.00,,,0.00,137,Wunderground v.1.15,2013-01-15 21:36:00,
2013-01-15 15:41:00,28.7,16.6,30.37,South,182,6.0,13.0,60,0.00,,,0.00,121,Wunderground v.1.15,2013-01-15 21:41:00,
2013-01-15 15:46:00,28.7,16.9,30.37,South,186,9.0,16.0,61,0.00,,,0.00,107,Wunderground v.1.15,2013-01-15 21:46:00,
2013-01-15 15:51:00,28.7,16.6,30.36,South,177,10.0,17.0,60,0.00,,,0.00,93,Wunderground v.1.15,2013-01-15 21:51:00,
2013-01-15 15:56:00,28.6,16.5,30.37,South,169,8.0,17.0,60,0.00,,,0.00,79,Wunderground v.1.15,2013-01-15 21:56:00,
2013-01-15 16:01:00,28.5,16.7,30.36,South,188,5.0,12.0,61,0.00,,,0.00,67,Wunderground v.1.15,2013-01-15 22:01:00,
2013-01-15 16:06:00,28.4,16.7,30.36,South,189,10.0,17.0,61,0.00,,,0.00,56,Wunderground v.1.15,2013-01-15 22:06:00,
2013-01-15 16:11:00,28.3,16.6,30.36,South,177,10.0,14.0,61,0.00,,,0.00,46,Wunderground v.1.15,2013-01-15 22:11:00,
2013-01-15 16:16:00,28.2,16.8,30.36,South,170,12.0,14.0,62,0.00,,,0.00,35,Wunderground v.1.15,2013-01-15 22:16:00,
2013-01-15 16:21:00,28.0,16.6,30.37,South,172,8.0,9.0,62,0.00,,,0.00,26,Wunderground v.1.15,2013-01-15 22:21:00,
2013-01-15 16:26:00,27.7,17.1,30.36,South,170,8.0,11.0,64,0.00,,,0.00,21,Wunderground v.1.15,2013-01-15 22:26:00,
2013-01-15 16:31:00,27.4,16.8,30.36,South,188,8.0,12.0,64,0.00,,,0.00,14,Wunderground v.1.15,2013-01-15 22:31:00,
2013-01-15 16:36:00,27.1,16.9,30.36,South,176,7.0,12.0,65,0.00,,,0.00,12,Wunderground v.1.15,2013-01-15 22:36:00,
2013-01-15 16:41:00,26.8,16.6,30.36,South,171,6.0,15.0,65,0.00,,,0.00,9,Wunderground v.1.15,2013-01-15 22:41:00,
2013-01-15 16:46:00,26.6,16.8,30.36,South,178,9.0,18.0,66,0.00,,,0.00,5,Wunderground v.1.15,2013-01-15 22:46:00,
2013-01-15 16:51:00,26.5,16.7,30.36,South,169,7.0,14.0,66,0.00,,,0.00,0,Wunderground v.1.15,2013-01-15 22:51:00,
2013-01-15 16:56:00,26.4,16.6,30.36,SSE,167,12.0,15.0,66,0.00,,,0.00,0,Wunderground v.1.15,2013-01-15 22:56:00,
2013-01-15 17:01:00,26.3,16.5,30.35,South,178,8.0,10.0,66,0.00,,,0.00,0,Wunderground v.1.15,2013-01-15 23:01:00,
2013-01-15 17:06:00,26.1,16.6,30.35,SSE,167,8.0,11.0,67,0.00,,,0.00,0,Wunderground v.1.15,2013-01-15 23:06:00,
2013-01-15 17:11:00,26.0,16.5,30.35,SSE,166,10.0,16.0,67,0.00,,,0.00,0,Wunderground v.1.15,2013-01-15 23:11:00,
2013-01-15 17:16:00,25.9,16.8,30.35,South,170,8.0,16.0,68,0.00,,,0.00,0,Wunderground v.1.15,2013-01-15 23:16:00,
2013-01-15 17:21:00,25.7,16.6,30.35,South,169,10.0,10.0,68,0.00,,,0.00,0,Wunderground v.1.15,2013-01-15 23:21:00,
2013-01-15 17:26:00,25.7,16.6,30.35,South,180,6.0,16.0,68,0.00,,,0.00,0,Wunderground v.1.15,2013-01-15 23:26:00,
2013-01-15 17:31:00,25.6,16.5,30.35,South,169,10.0,11.0,68,0.00,,,0.00,0,Wunderground v.1.15,2013-01-15 23:31:00,
2013-01-15 17:36:00,25.5,16.4,30.35,SSE,167,7.0,14.0,68,0.00,,,0.00,0,Wunderground v.1.15,2013-01-15 23:36:00,
2013-01-15 17:41:00,25.3,16.5,30.35,South,175,7.0,8.0,69,0.00,,,0.00,0,Wunderground v.1.15,2013-01-15 23:41:00,
2013-01-15 17:46:00,25.2,16.5,30.35,SSE,149,8.0,12.0,69,0.00,,,0.00,0,Wunderground v.1.15,2013-01-15 23:46:00,
2013-01-15 17:51:00,24.9,16.5,30.35,SSE,158,8.0,11.0,70,0.00,,,0.00,0,Wunderground v.1.15,2013-01-15 23:51:00,
2013-01-15 17:56:00,24.6,16.2,30.35,South,171,8.0,11.0,70,0.00,,,0.00,0,Wunderground v.1.15,2013-01-15 23:56:00,
2013-01-15 18:01:00,24.4,16.3,30.34,SSE,163,6.0,8.0,71,0.00,,,0.00,0,Wunderground v.1.15,2013-01-16 00:01:00,
2013-01-15 18:06:00,24.2,16.1,30.34,SSE,163,8.0,11.0,71,0.00,,,0.00,0,Wunderground v.1.15,2013-01-16 00:06:00,
2013-01-15 18:11:00,24.0,16.0,30.34,SSE,157,5.0,12.0,71,0.00,,,0.00,0,Wunderground v.1.15,2013-01-16 00:11:00,
2013-01-15 18:16:00,23.9,16.2,30.34,SSE,160,11.0,13.0,72,0.00,,,0.00,0,Wunderground v.1.15,2013-01-16 00:16:00,
2013-01-15 18:21:00,23.7,16.0,30.33,SSE,163,5.0,10.0,72,0.00,,,0.00,0,Wunderground v.1.15,2013-01-16 00:21:00,
2013-01-15 18:26:00,23.5,16.1,30.34,SE,143,10.0,12.0,73,0.00,,,0.00,0,Wunderground v.1.15,2013-01-16 00:26:00,
2013-01-15 18:31:00,23.5,16.1,30.34,SSE,155,6.0,10.0,73,0.00,,,0.00,0,Wunderground v.1.15,2013-01-16 00:31:00,
2013-01-15 18:36:00,23.4,16.3,30.34,SSE,157,10.0,11.0,74,0.00,,,0.00,0,Wunderground v.1.15,2013-01-16 00:36:00,
2013-01-15 18:41:00,23.3,16.2,30.33,South,174,1.0,10.0,74,0.00,,,0.00,0,Wunderground v.1.15,2013-01-16 00:41:00,
2013-01-15 18:46:00,23.3,16.2,30.33,South,169,9.0,12.0,74,0.00,,,0.00,0,Wunderground v.1.15,2013-01-16 00:46:00,
2013-01-15 18:51:00,23.2,16.1,30.33,SSE,161,9.0,12.0,74,0.00,,,0.00,0,Wunderground v.1.15,2013-01-16 00:51:00,
2013-01-15 18:56:00,23.1,16.0,30.33,South,177,9.0,12.0,74,0.00,,,0.00,0,Wunderground v.1.15,2013-01-16 00:56:00,
2013-01-15 19:01:00,23.1,16.0,30.33,South,181,5.0,12.0,74,0.00,,,0.00,0,Wunderground v.1.15,2013-01-16 01:01:00,
2013-01-15 19:06:00,23.0,15.9,30.32,SSE,167,5.0,13.0,74,0.00,,,0.00,0,Wunderground v.1.15,2013-01-16 01:06:00,
2013-01-15 19:11:00,22.9,15.8,30.32,SSE,168,7.0,11.0,74,0.00,,,0.00,0,Wunderground v.1.15,2013-01-16 01:11:00,
2013-01-15 19:16:00,22.9,15.8,30.32,South,176,6.0,12.0,74,0.00,,,0.00,0,Wunderground v.1.15,2013-01-16 01:16:00,
2013-01-15 19:21:00,22.8,16.1,30.32,South,170,8.0,9.0,75,0.00,,,0.00,0,Wunderground v.1.15,2013-01-16 01:21:00,
2013-01-15 19:26:00,22.7,16.0,30.32,SSW,193,10.0,13.0,75,0.00,,,0.00,0,Wunderground v.1.15,2013-01-16 01:26:00,
2013-01-15 19:31:00,22.6,15.9,30.32,SSE,168,8.0,12.0,75,0.00,,,0.00,0,Wunderground v.1.15,2013-01-16 01:31:00,
2013-01-15 19:36:00,22.5,15.8,30.31,South,176,8.0,12.0,75,0.00,,,0.00,0,Wunderground v.1.15,2013-01-16 01:36:00,
2013-01-15 19:41:00,22.5,15.8,30.30,South,172,11.0,12.0,75,0.00,,,0.00,0,Wunderground v.1.15,2013-01-16 01:41:00,
2013-01-15 19:46:00,22.6,15.9,30.30,South,169,6.0,18.0,75,0.00,,,0.00,0,Wunderground v.1.15,2013-01-16 01:46:00,
2013-01-15 19:51:00,22.6,15.9,30.30,SSE,166,5.0,9.0,75,0.00,,,0.00,0,Wunderground v.1.15,2013-01-16 01:51:00,
2013-01-15 19:56:00,22.5,15.8,30.29,South,188,4.0,11.0,75,0.00,,,0.00,0,Wunderground v.1.15,2013-01-16 01:56:00,
2013-01-15 20:01:00,22.5,15.8,30.29,SSW,194,10.0,11.0,75,0.00,,,0.00,0,Wunderground v.1.15,2013-01-16 02:01:00,
2013-01-15 20:06:00,22.7,16.0,30.29,South,183,6.0,14.0,75,0.00,,,0.00,0,Wunderground v.1.15,2013-01-16 02:06:00,
2013-01-15 20:11:00,22.8,16.1,30.29,South,177,10.0,14.0,75,0.00,,,0.00,0,Wunderground v.1.15,2013-01-16 02:11:00,
2013-01-15 20:16:00,22.9,15.8,30.29,South,172,11.0,14.0,74,0.00,,,0.00,0,Wunderground v.1.15,2013-01-16 02:16:00,
2013-01-15 20:21:00,22.8,15.8,30.29,SSE,164,9.0,11.0,74,0.00,,,0.00,0,Wunderground v.1.15,2013-01-16 02:21:00,
2013-01-15 20:26:00,22.7,16.0,30.28,South,180,9.0,14.0,75,0.00,,,0.00,0,Wunderground v.1.15,2013-01-16 02:26:00,
2013-01-15 20:31:00,22.5,15.8,30.28,South,172,10.0,17.0,75,0.00,,,0.00,0,Wunderground v.1.15,2013-01-16 02:31:00,
2013-01-15 20:36:00,22.5,15.8,30.28,South,171,5.0,17.0,75,0.00,,,0.00,0,Wunderground v.1.15,2013-01-16 02:36:00,
2013-01-15 20:41:00,22.4,15.7,30.28,South,177,10.0,10.0,75,0.00,,,0.00,0,Wunderground v.1.15,2013-01-16 02:41:00,
2013-01-15 20:46:00,22.3,15.6,30.27,South,175,5.0,12.0,75,0.00,,,0.00,0,Wunderground v.1.15,2013-01-16 02:46:00,
2013-01-15 20:51:00,22.3,15.6,30.27,South,176,7.0,10.0,75,0.00,,,0.00,0,Wunderground v.1.15,2013-01-16 02:51:00,
2013-01-15 20:56:00,22.2,15.5,30.27,SSE,165,6.0,12.0,75,0.00,,,0.00,0,Wunderground v.1.15,2013-01-16 02:56:00,
2013-01-15 21:01:00,22.1,15.7,30.26,SSE,166,6.0,10.0,76,0.00,,,0.00,0,Wunderground v.1.15,2013-01-16 03:01:00,
2013-01-15 21:06:00,22.0,15.6,30.27,South,171,6.0,11.0,76,0.00,,,0.00,0,Wunderground v.1.15,2013-01-16 03:06:00,
2013-01-15 21:11:00,21.8,15.4,30.27,South,182,10.0,10.0,76,0.00,,,0.00,0,Wunderground v.1.15,2013-01-16 03:11:00,
2013-01-15 21:16:00,21.7,15.3,30.26,South,171,6.0,11.0,76,0.00,,,0.00,0,Wunderground v.1.15,2013-01-16 03:16:00,
2013-01-15 21:21:00,21.8,15.7,30.26,South,172,7.0,9.0,77,0.00,,,0.00,0,Wunderground v.1.15,2013-01-16 03:21:00,
2013-01-15 21:26:00,21.8,15.7,30.26,South,169,7.0,9.0,77,0.00,,,0.00,0,Wunderground v.1.15,2013-01-16 03:26:00,
2013-01-15 21:31:00,21.7,15.6,30.25,South,182,9.0,9.0,77,0.00,,,0.00,0,Wunderground v.1.15,2013-01-16 03:31:00,
2013-01-15 21:36:00,21.7,15.6,30.25,South,178,5.0,11.0,77,0.00,,,0.00,0,Wunderground v.1.15,2013-01-16 03:36:00,
2013-01-15 21:41:00,21.7,15.6,30.25,South,174,5.0,9.0,77,0.00,,,0.00,0,Wunderground v.1.15,2013-01-16 03:41:00,
2013-01-15 21:46:00,21.6,15.5,30.25,SSW,196,8.0,10.0,77,0.00,,,0.00,0,Wunderground v.1.15,2013-01-16 03:46:00,
2013-01-15 21:51:00,21.7,15.6,30.24,SSE,167,8.0,9.0,77,0.00,,,0.00,0,Wunderground v.1.15,2013-01-16 03:51:00,
2013-01-15 21:56:00,21.6,15.5,30.24,South,182,12.0,13.0,77,0.00,,,0.00,0,Wunderground v.1.15,2013-01-16 03:56:00,
2013-01-15 22:01:00,21.6,15.5,30.24,South,180,4.0,7.0,77,0.00,,,0.00,0,Wunderground v.1.15,2013-01-16 04:01:00,
2013-01-15 22:06:00,21.6,15.5,30.24,South,173,5.0,10.0,77,0.00,,,0.00,0,Wunderground v.1.15,2013-01-16 04:06:00,
2013-01-15 22:11:00,21.6,15.8,30.23,South,180,6.0,8.0,78,0.00,,,0.00,0,Wunderground v.1.15,2013-01-16 04:11:00,
2013-01-15 22:16:00,21.6,15.8,30.24,South,184,5.0,9.0,78,0.00,,,0.00,0,Wunderground v.1.15,2013-01-16 04:16:00,
2013-01-15 22:21:00,21.6,15.8,30.23,SSW,194,6.0,9.0,78,0.00,,,0.00,0,Wunderground v.1.15,2013-01-16 04:21:00,
2013-01-15 22:26:00,21.6,15.8,30.23,SSW,197,6.0,9.0,78,0.00,,,0.00,0,Wunderground v.1.15,2013-01-16 04:26:00,
2013-01-15 22:31:00,21.8,16.0,30.23,SSW,205,8.0,9.0,78,0.00,,,0.00,0,Wunderground v.1.15,2013-01-16 04:31:00,
2013-01-15 22:36:00,22.0,16.2,30.23,SSW,196,7.0,12.0,78,0.00,,,0.00,0,Wunderground v.1.15,2013-01-16 04:36:00,
2013-01-15 22:41:00,21.9,16.1,30.22,SSE,164,8.0,9.0,78,0.00,,,0.00,0,Wunderground v.1.15,2013-01-16 04:41:00,
2013-01-15 22:46:00,21.8,16.0,30.22,South,173,7.0,11.0,78,0.00,,,0.00,0,Wunderground v.1.15,2013-01-16 04:46:00,
2013-01-15 22:51:00,21.6,15.8,30.22,South,173,7.0,7.0,78,0.00,,,0.00,0,Wunderground v.1.15,2013-01-16 04:51:00,
2013-01-15 22:56:00,21.4,15.6,30.22,South,169,6.0,10.0,78,0.00,,,0.00,0,Wunderground v.1.15,2013-01-16 04:56:00,
2013-01-15 23:00:00,21.3,15.5,30.22,South,174,5.0,14.0,78,0.00,,,0.00,0,Wunderground v.1.15,2013-01-16 05:00:00,
2013-01-15 23:01:00,21.2,15.4,30.22,SSE,167,9.0,14.0,78,0.00,,,0.00,0,Wunderground v.1.15,2013-01-16 05:01:00,
2013-01-15 23:02:00,21.3,15.5,30.22,South,173,8.0,14.0,78,0.00,,,0.00,0,Wunderground v.1.15,2013-01-16 05:02:00,
2013-01-15 23:07:00,21.2,15.4,30.21,South,180,5.0,14.0,78,0.00,,,0.00,0,Wunderground v.1.15,2013-01-16 05:07:00,
2013-01-15 23:12:00,21.1,15.3,30.21,South,183,3.0,11.0,78,0.00,,,0.00,0,Wunderground v.1.15,2013-01-16 05:12:00,
2013-01-15 23:17:00,21.1,15.3,30.20,South,174,5.0,11.0,78,0.00,,,0.00,0,Wunderground v.1.15,2013-01-16 05:17:00,
2013-01-15 23:22:00,21.0,14.9,30.20,South,182,8.0,11.0,77,0.00,,,0.00,0,Wunderground v.1.15,2013-01-16 05:22:00,
2013-01-15 23:27:00,20.9,14.8,30.20,SW,215,12.0,13.0,77,0.00,,,0.00,0,Wunderground v.1.15,2013-01-16 05:27:00,
2013-01-15 23:32:00,20.8,14.7,30.19,SSE,163,4.0,10.0,77,0.00,,,0.00,0,Wunderground v.1.15,2013-01-16 05:32:00,
2013-01-15 23:37:00,20.7,14.6,30.19,South,178,6.0,10.0,77,0.00,,,0.00,0,Wunderground v.1.15,2013-01-16 05:37:00,
2013-01-15 23:42:00,20.6,14.8,30.18,South,172,8.0,11.0,78,0.00,,,0.00,0,Wunderground v.1.15,2013-01-16 05:42:00,
2013-01-15 23:47:00,20.5,14.7,30.18,South,172,9.0,11.0,78,0.00,,,0.00,0,Wunderground v.1.15,2013-01-16 05:47:00,
2013-01-15 23:52:00,20.5,14.7,30.18,SSE,168,8.0,10.0,78,0.00,,,0.00,0,Wunderground v.1.15,2013-01-16 05:52:00,
2013-01-15 23:57:00,20.5,14.7,30.18,South,183,6.0,13.0,78,0.00,,,0.00,0,Wunderground v.1.15,2013-01-16 05:57:00,